sat.trackr.live / text

‹ back to catalog

STARLINK-11152 [DTC]

NORAD 60194 · 2024-124M

PAYLOAD ACTIVE UNKNOWN

§ Identity

Operator
Country
US
Launch date
2024-07-03
Launch site
AFETR
Launch vehicle
Mass (kg)
RCS (m²)

Purposes: comms

External: N2YO · Heavens-Above · Gunter

§ Orbital elements

Epoch: 2026-09-20T06:18:53.193888Z

Period
91.74 min
Inclination
53.1585°
Eccentricity
0.0001059
Mean motion
15.69710639 rev/d
Perigee alt
359.0 km
Apogee alt
360.4 km
Semi-major
6,737.9 km
B*
3.9382e-6
RAAN
282.1048°
Arg perigee
60.4829°
Mean anomaly
299.6294°
Rev number
12,828

§ Raw data

STARLINK-11152 [DTC]1 60194U 24124M   26263.26311567 -.00000111  00000+0  39382-5 0  99962 60194  53.1585 282.1048 0001059  60.4829 299.6294 15.69710639128287

JSON: /api/v1/satellites/60194 · /tle

For live sub-satellite position, see the globe view (requires WebGL).

§ Visibility from observer

Set your observer location to see the next 7 days of passes ≥ 10°. The values pass through the URL so the page stays shareable.

No JS? Fill the form by hand. The geolocation button needs JavaScript.